User: anonymous   Login
Location: Brno
(49.2000°N, 16.6330°E)
Time: 07:01:10
(UTC+02:00)
Language:

Cosmos 332 Rocket - Orbit

View from above orbital plane
View from above orbital plane
View from above satellite
View from above satellite

Ground track
Ground track

The orbit data is extracted from the following two-line orbital elements,

1 04370U 70028B   15109.70121281  .00000620  00000-0  13674-3 0  9991
2 04370 074.0391 154.6778 0017065 273.8706 086.0508 14.59508324896786
Epoch (UTC): 19 April 2015 16:49:44
Eccentricity: 0.0017065
inclination: 74.0391°
perigee height: 682 km
apogee height: 707 km
right ascension of ascending node: 154.6778°
argument of perigee: 273.8706°
revolutions per day: 14.59508324
mean anomaly at epoch: 86.0508°
orbit number at epoch: 89678

The dashed part of the orbit path shows where the satellite is in the earth's shadow,  

DLR